Minot, ND

6:17 PM CST on January 18, 2018 (GMT -0600)
Minot International

Weather History for KMOT - May, 2014

Change the Weather History Date:

Monday, May 5, 2014

  Actual Average Record
Temperature  
Mean Temperature 48 °F 51 °F  
Max Temperature 62 °F 64 °F 98 °F (1926)
Min Temperature 33 °F 39 °F 13 °F (1929)
Degree Days  
Heating Degree Days 17    
Month to date heating degree days 105  
Cooling Degree Days 0 0  
Month to date cooling degree days 0 0  
Year to date cooling degree days 0 1  
Moisture  
Dew Point 37 °F    
Average Humidity 71    
Maximum Humidity 100    
Minimum Humidity 42    
Precipitation  
Precipitation 0.00 in 0.07 in 2.08 in (1999)
Month to date precipitation 0.19 0.32  
Year to date precipitation 2.40 3.21  
Sea Level Pressure  
Sea Level Pressure 29.96 in    
Wind  
Wind Speed 11 mph (ESE)    
Max Wind Speed 17 mph    
Max Gust Speed 22 mph    
Visibility 10 miles    
Events Rain    
T = Trace of Precipitation, MM = Missing Value Source: NWS Daily Summary

Daily Weather History Graph

Daily Weather History Graph

Search for Another Location

Airport or City:

Trip Planner

Search our weather history database for the weather conditions in past years. The results will help you decide how hot, cold, wet, or windy it might be!

Date:

Astronomy

May. 05, 2014 Rise Set
Actual Time 6:19 AM CDT 9:04 PM CDT
Civil Twilight 5:44 AM CDT 9:40 PM CDT
Nautical Twilight 4:58 AM CDT 10:26 PM CDT
Astronomical Twilight 4:05 AM CDT 11:20 PM CDT
Moon 11:43 AM CDT (5/5) 1:49 AM CDT (5/5)
Length of Visible Light 15h 56m
Length of Day
14h 45m
Waxing Crescent, 37% of the Moon is Illuminated
May 5
Waxing Crescent
May 6
First Quarter
May 14
Full
May 21
Last Quarter
May 28
New

Hourly Weather History & Observations

Time (CDT) Temp. Windchill Dew Point Humidity Pressure Visibility Wind Dir Wind Speed Gust Speed Precip Events Conditions
12:54 AM 33.8 °F 26.4 °F 32.0 °F 93% 29.99 in 10.0 mi ESE 9.2 mph - N/A   Overcast
1:33 AM 34.0 °F 28.8 °F 32.0 °F 92% 29.99 in 9.0 mi East 5.8 mph - N/A   Overcast
1:54 AM 33.1 °F 27.7 °F 32.0 °F 96% 30.04 in 7.0 mi East 5.8 mph - N/A   Overcast
2:54 AM 33.1 °F 27.7 °F 32.0 °F 96% 30.04 in 6.0 mi East 5.8 mph - N/A   Overcast
3:54 AM 34.0 °F 28.8 °F 32.0 °F 92% 30.03 in 10.0 mi East 5.8 mph - N/A   Overcast
4:54 AM 34.0 °F 28.8 °F 32.0 °F 92% 30.04 in 10.0 mi East 5.8 mph - N/A   Overcast
5:54 AM 34.0 °F 24.6 °F 32.0 °F 92% 30.04 in 10.0 mi ESE 13.8 mph - N/A   Overcast
6:54 AM 34.0 °F 26.0 °F 33.1 °F 96% 30.04 in 10.0 mi ESE 10.4 mph - N/A   Overcast
7:01 AM 35.1 °F 27.9 °F 33.1 °F 92% 29.98 in 10.0 mi ESE 9.2 mph - N/A   Overcast
7:43 AM 35.1 °F 26.4 °F 33.1 °F 92% 29.98 in 10.0 mi ESE 12.7 mph - N/A   Overcast
7:54 AM 35.1 °F 25.9 °F 33.1 °F 92% 30.04 in 10.0 mi ESE 13.8 mph - N/A   Overcast
8:54 AM 37.0 °F 28.9 °F 34.0 °F 89% 30.05 in 10.0 mi ESE 12.7 mph - N/A   Overcast
9:54 AM 39.0 °F 30.6 °F 36.0 °F 89% 30.03 in 10.0 mi ESE 15.0 mph - N/A   Overcast
10:36 AM 41.0 °F 32.8 °F 36.0 °F 82% 29.97 in 10.0 mi ESE 16.1 mph - N/A   Overcast
10:54 AM 42.1 °F 34.5 °F 37.0 °F 82% 30.02 in 10.0 mi ESE 15.0 mph - N/A   Overcast
11:54 AM 46.0 °F 39.6 °F 37.9 °F 73% 30.00 in 10.0 mi ESE 15.0 mph - N/A   Overcast
12:06 PM 46.0 °F 40.2 °F 37.9 °F 73% 29.94 in 10.0 mi ESE 12.7 mph - N/A   Mostly Cloudy
12:35 PM 48.9 °F - 39.9 °F 71% 29.94 in 10.0 mi ESE 12.7 mph - N/A   Mostly Cloudy
12:54 PM 50.0 °F - 39.2 °F 66% 29.93 in 10.0 mi ESE 13.8 mph - N/A   Mostly Cloudy
1:54 PM 53.1 °F - 39.9 °F 61% 29.95 in 10.0 mi East 11.5 mph 18.4 mph N/A   Mostly Cloudy
2:16 PM 55.0 °F - 41.0 °F 59% 29.90 in 10.0 mi ESE 16.1 mph 20.7 mph N/A   Scattered Clouds
2:54 PM 55.0 °F - 37.9 °F 53% 29.92 in 10.0 mi SE 11.5 mph - N/A   Mostly Cloudy
3:54 PM 57.9 °F - 37.9 °F 47% 29.90 in 10.0 mi SE 8.1 mph 18.4 mph N/A   Clear
4:54 PM 61.0 °F - 37.9 °F 42% 29.87 in 10.0 mi ESE 9.2 mph 17.3 mph N/A   Clear
5:54 PM 61.0 °F - 37.9 °F 42% 29.84 in 10.0 mi East 12.7 mph - N/A   Partly Cloudy
6:54 PM 59.0 °F - 39.0 °F 48% 29.84 in 10.0 mi East 10.4 mph - N/A   Mostly Cloudy
7:54 PM 57.0 °F - 39.9 °F 53% 29.85 in 10.0 mi SE 12.7 mph 21.9 mph N/A   Overcast
8:54 PM 53.1 °F - 45.0 °F 74% 29.86 in 10.0 mi SSE 16.1 mph - 0.00 in Rain Light Rain
9:54 PM 50.0 °F - 43.0 °F 77% 29.88 in 10.0 mi SE 15.0 mph - 0.00 in   Overcast
10:54 PM 50.0 °F - 42.1 °F 74% 29.87 in 10.0 mi SE 13.8 mph - 0.00 in   Overcast
11:54 PM 48.9 °F - 42.1 °F 77% 29.86 in 10.0 mi ESE 11.5 mph - N/A   Overcast